Regional Weather Roundup
Issued by NWS

Home | Current Version | Previous Version | Text Only | Print | Product List | Glossary Off
Versions: 1 2 3 4 5 6 7 8 9 10 11 12 13 14 15 16 17 18 19 20 21 22 23 24 25 26 27 28 29 30 31 32 33 34 35 36 37 38 39 40 41 42 43 44 45 46 47 48 49 50

000
ASUS45 KCYS 231210
RWRWY

WYOMING REGIONAL WEATHER ROUNDUP
NATIONAL WEATHER SERVICE CHEYENNE WY
600 AM MDT WED JUL 23 2014

NOTE:  "FAIR" INDICATES FEW OR NO CLOUDS BELOW 12,000 FEET
WITH NO SIGNIFICANT WEATHER AND/OR OBSTRUCTIONS TO VISIBILITY.

WYZ001-231300-
YELLOWSTONE NATIONAL PARK

CITY           SKY/WX    TMP DP  RH WIND       PRES   REMARKS
LK YELLOWSTONE   N/A     50  42  74 CALM      30.44R
6HR MIN TEMP:  43; 6HR MAX TEMP:  52;

W YELLOWSTONE  NOT AVBL

$$
WYZ002>013-054>058-071-098>099-231300-
NORTHERN WYOMING

CITY           SKY/WX    TMP DP  RH WIND       PRES   REMARKS
JACKSON        PTCLDY    46  41  81 N6        30.34R
CODY           PTCLDY    61  45  55 S6        30.25R
GREYBULL       PTCLDY    61  50  67 E6        30.18F
6HR MIN TEMP:  61; 6HR MAX TEMP:  75;

WORLAND        CLEAR     58  47  66 SE5       30.20S
6HR MIN TEMP:  56; 6HR MAX TEMP:  73;

SHERIDAN       PTCLDY    67  58  72 SE20G26   30.19F
6HR MIN TEMP:  60; 6HR MAX TEMP:  69;

BUFFALO        PTCLDY    61  55  81 S14       30.29F
6HR MIN TEMP:  60; 6HR MAX TEMP:  67;

GILLETTE       CLEAR     66  59  78 SE15      30.27S
6HR MIN TEMP:  61; 6HR MAX TEMP:  66;

HULETT         FAIR      70  59  68 MISG      30.28
NEWCASTLE      FAIR      64  54  68 MISG      30.33

$$
WYZ014>020-022>026-101>103-231300-
CENTRAL WYOMING

CITY           SKY/WX    TMP DP  RH WIND       PRES   REMARKS
BIG PINEY      PTCLDY    43  28  55 NW3       30.39R
6HR MIN TEMP:  42; 6HR MAX TEMP:  57;

PINEDALE       MOSUNNY   43  36  75 W3        30.40S
DUBOIS         FAIR      48  32  53 NW6       30.42R
LANDER         CLEAR     63  39  41 W6        30.29R
6HR MIN TEMP:  62; 6HR MAX TEMP:  72;

RIVERTON       CLEAR     63  54  72 E12       30.29S
6HR MIN TEMP:  63; 6HR MAX TEMP:  77;

CASPER         CLEAR     54  53  97 W5        30.31S
6HR MIN TEMP:  54; 6HR MAX TEMP:  69;

DOUGLAS        CLEAR     65  59  81 SE16G23   30.32R
6HR MIN TEMP:  64; 6HR MAX TEMP:  72;


$$
WYZ021-027>030-104>119-231300-
SOUTHERN WYOMING

CITY           SKY/WX    TMP DP  RH WIND       PRES   REMARKS
EVANSTON       CLEAR     60  28  29 SE8       30.37R
6HR MIN TEMP:  60; 6HR MAX TEMP:  70;

KEMMERER       MOSUNNY   54  30  40 N8        30.40R
FORT BRIDGER   FAIR      60  24  25 W8        30.39R
ROCK SPRINGS   PTCLDY    63  22  20 SE6       30.35R
6HR MIN TEMP:  60; 6HR MAX TEMP:  74;

DIXON          FAIR      52  34  50 SE6       30.39R
RAWLINS        CLEAR     52  35  52 CALM      30.39R
6HR MIN TEMP:  50; 6HR MAX TEMP:  63;

SARATOGA       FAIR      52  39  62 N5        30.42R
LARAMIE        CLEAR     57  55  93 S9        30.44R FOG
6HR MIN TEMP:  57; 6HR MAX TEMP:  68;

CHEYENNE       CLOUDY    62  60  93 S8        30.40R FOG
6HR MIN TEMP:  63; 6HR MAX TEMP:  71;

TORRINGTON     CLOUDY    67  63  87 E21       30.33R
6HR MIN TEMP:  67; 6HR MAX TEMP:  75;

PINE BLUFFS    CLOUDY    64  63  94 SE7       30.36R

$$


USA.gov is the U.S. government's official web portal to all federal, state and local government web resources and services.